Location: Aixovall
(42.4760°N, 1.4902°E)
Time: 07:45:15
(UTC+00:00)

Cosmos 2266 Rocket - Pass Details

Date: 22 November 2025
Orbit: 933 x 1006 km, 82.9° (Epoch: 08 December)

Event Time Altitude Azimuth Distance (km) Brightness Sun altitude
Rises 20:40:28 0° 341° (NNW) 3,710 7.4 -46.4°
Reaches altitude 10° 20:43:23 10° 330° (NNW) 2,746 6.7 -46.9°
Enters shadow 20:43:29 10° 329° (NNW) 2,717 6.7 -46.9°
